#timestamp,LO_Frequency,Hit,StdDev 
1584733495.1,286047091.9,P
1584733496.0,286047091.9,P
1584733515.8,286047093.5,P
1584733535.7,286047093.7,Y
1584733555.5,286047001.5,P
1584733575.3,286047001.3,N
1584733595.2,286047003.5,N
1584733615.0,286047003.7,N
1584733615.9,286047003.7,N
1584733635.8,286047003.4,N
1584733655.6,286047003.5,N
1584733675.4,286047003.9,N
1584733695.3,286047004.2,N
1584733715.1,286047000.4,N
1584733735.8,286047000.8,N
1584733755.7,286047000.5,N
1584733775.5,286047001.9,N
1584733795.3,286047002.0,N
1584733815.2,286047003.9,N
1584733835.0,286047004.2,N
1584733835.9,286047004.2,N
1584733855.8,286047001.3,N
1584733875.6,286047003.3,N
1584733895.4,286047003.3,N
1584733915.3,286047007.6,N
1584733935.1,286047004.8,N
1584733955.9,286047005.0,N
1584733975.7,286047003.2,N
1584733995.5,286047003.0,N
1584734015.4,286047005.0,N
1584734035.2,286047009.6,N
1584734055.0,286047011.8,N
1584734056.0,286047011.8,N
1584734075.8,286047011.2,N
1584734095.6,286047011.1,Y
1584734115.5,286047008.8,P
1584734135.3,286047010.7,P
1584734155.1,286047011.9,P
1584734175.9,286047011.3,Y
1584734195.7,286047005.4,P
1584734215.6,286047004.5,N
1584734235.4,286047003.4,N
1584734255.2,286047004.1,N
1584734275.1,286047002.2,N
1584734276.0,286047002.2,N
1584734295.8,286047000.0,N
1584734315.7,286047004.0,N
1584734335.5,286047003.9,N
1584734355.3,286047003.1,N
1584734375.2,286047003.3,N
1584734395.0,286047003.5,N
1584734395.9,286047003.5,N
